Tracking 23757 objects as of 26-Oct-2021
HD Live streaming from Space Station
objects crossing your sky now

COSMOS 1541

Track COSMOS 1541 now!
COSMOS 1541 is classified as:


NORAD ID: 14790
Int'l Code: 1984-024A
Perigee: 6,953.3 km
Apogee: 33,406.4 km
Inclination: 71.7 °
Period: 717.6 minutes
Semi major axis: 26550 km
RCS: 7.9433 m2 (large)
Launch date: March 6, 1984
Source: Commonwealth of Independent States (former USSR) (CIS)
Launch site: PLESETSK MISSILE AND SPACE COMPLEX (PKMTR)
aabbcc
Your satellite tracking list
Your tracking list is empty




NASA's NSSDC Master Catalog

Two Line Element Set (TLE):
1 14790U 84024A   21298.29120205  .00000021  00000-0  00000+0 0  9994
2 14790  71.6814 215.6241 4981595  29.9546 240.9409  2.00671418247928
Source of the keplerian elements: AFSPC